Regional Weather Roundup
Issued by NWS Upton, NY

Current Version | Previous Version | Text Only | Print | Product List | Glossary Off
Versions: 1 2 3 4 5 6 7 8 9 10 11 12 13 14 15 16 17 18 19 20 21 22 23 24 25 26 27 28 29 30 31 32 33 34 35 36 37 38 39 40 41 42 43 44 45 46 47 48 49 50
000 ASUS41 KOKX 240508 RWROKX REGIONAL WEATHER ROUNDUP NATIONAL WEATHER SERVICE NEW YORK NY 1200 AM EST FRI NOV 24 2017 NOTE: "FAIR" INDICATES FEW OR NO CLOUDS BELOW 12,000 FEET WITH NO SIGNIFICANT WEATHER AND/OR OBSTRUCTIONS TO VISIBILITY. NYZ071-072-176-178-NJZ106-104-240600- NEW YORK CITY METRO AREA CITY SKY/WX TMP DP RH WIND PRES REMARKS Central Park CLEAR 37 21 52 NW3 30.06S Bronx Bot Gard N/A 37 21 52 W8 30.06R WCI 31 Bronx Lehman C N/A 36 32 87 NW7 N/A WCI 30 LaGuardia APRT PTCLDY 39 21 48 NW9 30.04S WCI 33 Queens College N/A 37 32 81 NW5 N/A WCI 34 Kennedy INTL PTCLDY 37 22 54 W7 30.05S WCI 32 Breezy Point N/A 37 N/A N/A W7 N/A WCI 32 Brooklyn Coll N/A 39 32 75 W5 N/A Staten Island N/A 32 32 100 W3 N/A Newark/Liberty PTCLDY 33 21 61 W6 30.05S WCI 28 Teterboro CLEAR 32 21 64 CALM 30.04S $$ NYZ177-179-078>081-240600- LONG ISLAND NEW YORK CITY SKY/WX TMP DP RH WIND PRES REMARKS Jones Beach N/A 39 N/A N/A NW8 N/A WCI 34 Wantagh N/A 34 32 93 W5 N/A WCI 30 Matinecock PT N/A 39 N/A N/A W15 N/A WCI 31 Farmingdale CLEAR 32 25 75 NW3 30.04S MacArthur/ISP PTCLDY 31 24 75 W5 30.02F WCI 26 Shirley CLEAR 29 24 82 CALM 30.03F Mt Sinai Harb N/A N/A N/A N/A S1 N/A Westhampton CLEAR 23 18 81 CALM 30.04F East Hampton FAIR 26 23 89 CALM 30.01F Southold N/A 34 32 93 SW3 N/A Montauk NOT AVBL $$ NYZ052-065-067-240600- HUDSON VALLEY CITY SKY/WX TMP DP RH WIND PRES REMARKS White Plains CLEAR 33 20 58 W6 30.01S WCI 28 Larchmont Harb N/A 36 N/A N/A W7 N/A WCI 30 Croton On Huds N/A 32 N/A N/A E2 N/A Somers N/A 32 32 100 CALM N/A Brewster N/A 28 32 100 N1 N/A Newburgh MOCLDY 32 23 69 CALM 30.02S Montgomery CLEAR 27 21 78 SW3 30.01R Suffern N/A 32 32 100 W2 N/A Poughkeepsie CLEAR 27 22 81 SE3 30.02R Albany CLOUDY 33 21 61 S5 29.99F WCI 29 $$ NJZ001-105-106-008-010-013-015-019>022-104-240600- NEW JERSEY CITY SKY/WX TMP DP RH WIND PRES REMARKS Newark/Liberty PTCLDY 33 21 61 W6 30.05S WCI 28 Teterboro CLEAR 32 21 64 CALM 30.04S Caldwell CLEAR 28 22 78 CALM 30.05S Somerville CLEAR 24 22 91 CALM 30.05S Linden FAIR 32 21 63 CALM 30.06S Perth Amboy N/A 34 N/A N/A W6 N/A WCI 29 Sussex CLEAR 26 23 88 CALM 30.03S Andover NOT AVBL Trenton CLEAR 30 20 66 W3 30.05S Millville CLEAR 24 23 96 CALM 30.09R Atlantic City CLEAR 26 22 84 CALM 30.08S Wrightstown CLEAR 29 21 74 CALM 30.04R Toms River CLEAR 22 20 92 CALM 30.08R Belmar CLEAR 30 21 69 SW6 30.06S WCI 24 $$ PAZ047>061-062-071-240600- EASTERN PENNSYLVANIA CITY SKY/WX TMP DP RH WIND PRES REMARKS Philadelphia CLEAR 34 22 61 W7 30.08S WCI 28 Allentown CLEAR 28 19 69 CALM 30.05S Scranton CLOUDY 30 23 75 CALM 30.00F $$ CTZ002-004>006-009-010-012-RIZ004-006-007-MAZ004-011-015-240600- SOUTHERN NEW ENGLAND IN CT CITY SKY/WX TMP DP RH WIND PRES REMARKS Bradley INTL CLOUDY 30 22 72 CALM 30.00F Hartford CLOUDY 30 25 81 S3 30.02S Danbury CLEAR 26 21 81 CALM 30.03R Wtrbury/Oxford CLEAR 29 20 69 NW3 30.00S Norwalk Harbor N/A 34 N/A N/A W7 N/A WCI 28 Bridgeport CLEAR 32 22 66 NW7 30.03S WCI 26 Meriden PTCLDY 26 22 84 CALM 30.02S New Haven CLEAR 28 21 75 CALM 30.02S Chester FAIR 30 18 59 MISG 30.00S Groton CLEAR 29 23 78 CALM 30.01F Wilimantic CLOUDY 30 24 78 CALM 30.02R IN RI CITY SKY/WX TMP DP RH WIND PRES REMARKS Providence CLOUDY 31 24 75 SW3 30.02S Block Island CLEAR 38 23 55 W6 30.01F WCI 33 Westerly MOCLDY 29 26 89 CALM 30.02S IN MA CITY SKY/WX TMP DP RH WIND PRES REMARKS Boston MOCLDY 35 18 49 W5 30.00R WCI 31 Worcester CLOUDY 31 18 58 W12 29.95R WCI 22 Westfield CLOUDY 30 22 72 CALM 29.99S Provincetown CLEAR 38 22 52 MISG N/A Nantucket CLOUDY 37 27 67 W6 30.00R WCI 32 $$ ANZ330-335-338-340-345-350-353-355-240600- COASTAL MARINE OBSERVATIONS STATION/POSITION TIME SKY/WX TEMP WIND PRES VSBY WAVE AIR SEA DIR/SP/G HT/PER (UTC) (F) (DEG/KT/KT) (MB) (MI) (FT/S) NY HARB ENTRANCE 0350 42 55 290/ 16/ 17 1016.7 3/ 9 20 S FIRE ISLAND 0350 43 56 290/ 12/ 16 1017.2 3/ 9 GREAT SOUTH BAY 0430 38 44 310/ 8/ 10 N/A HUDSON CANYON 0450 45 58 290/ 10/ 14 1016.9 5/ 9 KINGS POINT 0430 40 49 340/ 6/ 8 1018.1 EXECUTION ROCKS 0445 39 270/ 8/ 10 N/A WESTERN LI SOUND 0349 40 270/ 6/ 8 N/A 0 CENTRAL LI SOUND NOT AVBL ROBBINS REEF 0448 37 270/ 7/ 8 1018.1 $$ >>>>>>>>>>>>>>>>>>>>>>>>>>>> KEY <<<<<<<<<<<<<<<<<<<<<<<<<<< > < > SKY/WX - Sky Condition/Present Weather < > TMP - Temperature in Fahrenheit < > DP - Dew Point in Fahrenheit < > RH - Relative Humidity in Percent < > WIND - Direction (from) and Speed in MPH < > PRES - Mean Sea Level Pressure (inches of Hg) < > WCI - Wind Chill Index < > VSB - VISIBILITY IN MILES < > HX - HEAT INDEX < > TC - TEMPERATURE IN CELSIUS < > VRB - VARIABLE WIND DIRECTION < > < >>>>>>>>>>>>>>>>>>>>>>>>>>>> KEY <<<<<<<<<<<<<<<<<<<<<<<<<<<

USA.gov is the U.S. government's official web portal to all federal, state and local government web resources and services.